Hourly Data Report for May 07, 2019

MIRAMICHI RCS
NEW BRUNSWICK
Current Station Operator: ECCC - MSC

47°00'34.000" N
65°27'54.000" W
33.00 m
8100989
71744
ACQ

Download Data

Hourly Data (May 2019)
Hourly Data Report for May 7, 2019
TIME
LST
Temp Definition
°C
Dew Point Definition
°C
Rel Hum Definition
%
Precip. Amount Definition
mm

Wind Dir Definition
10's deg

Wind Spd Definition
km/h
Visibility Definition
km
Stn Press Definition
kPa
Hmdx Definition


Wind Chill Definition


Weather Definition


00:00 4.1 0.1 75 0.0   0   101.32     LegendNANA
01:00 2.4 -0.5 81 0.0 10 7   101.29     LegendNANA
02:00 1.9 -0.4 85 0.0 28 2   101.31     LegendNANA
03:00 1.7 -0.4 86 0.0 23 2   101.31     LegendNANA
04:00 1.3 -0.6 87 0.0   0   101.30     LegendNANA
05:00 1.9 0.0 87 0.0 21 5   101.24     LegendNANA
06:00 2.7 0.8 88 0.0 27 7   101.23     LegendNANA
07:00 8.7 1.8 62 0.0 24 12   101.22     LegendNANA
08:00 12.5 2.3 50 0.0 24 12   101.14     LegendNANA
09:00 16.0 1.5 38 0.0 23 21   101.10     LegendNANA
10:00 18.9 1.3 31 0.0 23 20   101.06     LegendNANA
11:00 18.1 0.6 31 0.0 23 22   101.04     LegendNANA
12:00 16.3 3.0 41 0.0 23 24   101.00     LegendNANA
13:00 17.6 3.2 38 0.0 24 19   100.96     LegendNANA
14:00 16.9 4.7 44 0.0 26 17   100.97     LegendNANA
15:00 14.7 8.6 67 0.0 26 9   100.98     LegendNANA
16:00 16.6 6.8 52 0.0 25 17   100.94     LegendNANA
17:00 14.5 9.3 71 0.0 27 15   100.99     LegendNANA
18:00 12.2 10.4 89 1.8 26 14   101.00     LegendNANA
19:00 10.8 9.0 89 1.5 31 6   101.06     LegendNANA
20:00 9.7 8.4 92 1.2 24 6   101.08     LegendNANA
21:00 9.0 7.9 93 0.0 26 7   101.12     LegendNANA
22:00 7.8 7.0 95 0.0 27 6   101.15     LegendNANA
23:00 6.3 3.9 85 0.0 28 6   101.20     LegendNANA

Notes on Data Quality.

Legend

  • E = Estimated
  • M = Missing
  • NA = Not Available*
  • [empty] = Indicates an unobserved value
Date modified: